Simultaneous Nadir Overpasses (SNOs) Predictions

Prediction of SNOs between FY3D and AQUA Satellite Orbit:

Table of predicted SNOs for the next 14.0 days since TLE Epoch: 7/23/2022
Index Date (FY3D) Time (FY3D) Lat,Lon (FY3D) SZA (FY3D ) Date (AQUA) Time (AQUA) Lat,Lon (AQUA) SZA (AQUA ) Distance(km) Time Diff (sec)
1 07/23/2022 19:36:34 76.80,-127.57 57.29 07/23/2022 19:37:37 76.79,-127.47 57.25 2.90 63
2 07/23/2022 20:26:52 -75.62, 44.00 124.11 07/23/2022 20:26:38 -75.62, 43.95 124.10 1.56 14
3 07/26/2022 11:03:22 -76.17,-176.90 122.91 07/26/2022 11:03:50 -76.17,-176.96 122.91 1.73 28
4 07/26/2022 11:53:49 75.24, -6.56 56.03 07/26/2022 11:52:58 75.24, -6.57 56.04 0.22 51
5 07/29/2022 01:39:55 -76.88, -38.66 121.46 07/29/2022 01:41:04 -76.87, -38.58 121.50 2.31 69
6 07/29/2022 02:30:15 75.67, 133.05 57.11 07/29/2022 02:30:06 75.68, 132.96 57.13 2.66 9
7 07/31/2022 17:06:47 76.32, -88.24 58.50 07/31/2022 17:07:19 76.32, -88.28 58.50 0.89 32
8 07/31/2022 17:57:13 -75.47, 81.94 122.48 07/31/2022 17:56:27 -75.47, 81.97 122.48 0.96 46
9 08/03/2022 07:43:15 76.78, 50.95 59.72 08/03/2022 07:44:28 76.78, 50.91 59.70 0.89 73
10 08/03/2022 08:33:43 -76.04,-138.97 121.17 08/03/2022 08:33:38 -76.03,-138.95 121.17 0.51 5
11 08/05/2022 23:10:09 -76.41, 0.64 120.03 08/05/2022 23:10:45 -76.42, 0.58 120.03 1.83 36



Historial Predications of SNOs between FY3D and AQUA
